• In Hungary
  • List of Countries
  • For 7 days
  • Water Temperature
  • Satellite Maps
  • Weather Map
  • News
  • Weather Widgets
  • user-avatar
    Login

    Hourly Weather Racula

    Today, 24 September, Monday

    Time Temperature Precipitation Wind Pressure Humidity
    00:00 +8°C° 0.8 mm 5 mps 745 mmHg 89%
    01:00 +8°C° 0.8 mm 5 mps 747 mmHg 88%
    02:00 +8°C° 0.2 mm 6 mps 748 mmHg 87%
    03:00 +8°C° 0.2 mm 6 mps 749 mmHg 86%
    04:00 +8°C° 0.2 mm 6 mps 750 mmHg 85%
    05:00 +7°C° 0 mm 6 mps 750 mmHg 84%
    06:00 +6°C° 0 mm 7 mps 751 mmHg 83%
    07:00 +6°C° 0 mm 7 mps 752 mmHg 82%
    08:00 +8°C° 0.1 mm 7 mps 752 mmHg 76%
    09:00 +9°C° 0.1 mm 8 mps 753 mmHg 70%
    10:00 +9°C° 0.1 mm 8 mps 754 mmHg 64%
    11:00 +10°C° 0.2 mm 9 mps 754 mmHg 59%
    12:00 +11°C° 0.2 mm 9 mps 754 mmHg 53%
    13:00 +12°C° 0.2 mm 9 mps 755 mmHg 47%
    14:00 +12°C° 0 mm 9 mps 755 mmHg 46%
    15:00 +11°C° 0 mm 8 mps 755 mmHg 44%
    16:00 +11°C° 0 mm 8 mps 756 mmHg 43%
    17:00 +10°C° 0 mm 7 mps 756 mmHg 47%
    18:00 +9°C° 0 mm 6 mps 757 mmHg 51%
    19:00 +8°C° 0 mm 5 mps 757 mmHg 56%
    20:00 +8°C° 0 mm 4 mps 758 mmHg 58%
    21:00 +7°C° 0 mm 4 mps 759 mmHg 60%
    22:00 +7°C° 0 mm 4 mps 759 mmHg 62%
    23:00 +6°C° 0 mm 4 mps 760 mmHg 64%

    Tomorrow, 25 September, Tuesday

    Time Temperature Precipitation Wind Pressure Humidity
    00:00 +6°C° 0 mm 4 mps 760 mmHg 66%
    01:00 +6°C° 0 mm 4 mps 761 mmHg 67%
    02:00 +5°C° 0 mm 4 mps 761 mmHg 69%
    03:00 +5°C° 0 mm 4 mps 761 mmHg 71%
    04:00 +5°C° 0 mm 4 mps 762 mmHg 73%
    05:00 +5°C° 0 mm 4 mps 762 mmHg 73%
    06:00 +5°C° 0 mm 4 mps 763 mmHg 73%
    07:00 +5°C° 0 mm 4 mps 763 mmHg 74%
    08:00 +7°C° 0 mm 4 mps 764 mmHg 67%
    09:00 +8°C° 0 mm 4 mps 764 mmHg 61%
    10:00 +11°C° 0 mm 4 mps 765 mmHg 54%
    11:00 +12°C° 0 mm 4 mps 765 mmHg 51%
    12:00 +13°C° 0 mm 4 mps 765 mmHg 47%
    13:00 +13°C° 0 mm 4 mps 765 mmHg 44%
    14:00 +13°C° 0 mm 4 mps 765 mmHg 44%
    15:00 +13°C° 0 mm 4 mps 765 mmHg 44%
    16:00 +13°C° 0 mm 4 mps 765 mmHg 44%
    17:00 +11°C° 0 mm 3 mps 765 mmHg 50%
    18:00 +10°C° 0 mm 2 mps 765 mmHg 56%
    19:00 +9°C° 0 mm 1 mps 766 mmHg 62%
    20:00 +9°C° 0 mm 1 mps 766 mmHg 63%
    21:00 +8°C° 0 mm 1 mps 766 mmHg 65%
    22:00 +8°C° 0 mm 1 mps 766 mmHg 67%
    23:00 +7°C° 0 mm 2 mps 766 mmHg 67%

    Day after tomorrow, 26 September, Wednesday

    Time Temperature Precipitation Wind Pressure Humidity
    00:00 +6°C° 0 mm 2 mps 766 mmHg 68%
    01:00 +6°C° 0 mm 2 mps 766 mmHg 69%
    02:00 +6°C° 0 mm 2 mps 766 mmHg 70%
    03:00 +5°C° 0 mm 2 mps 765 mmHg 70%
    04:00 +5°C° 0 mm 2 mps 765 mmHg 70%
    05:00 +5°C° 0 mm 2 mps 765 mmHg 69%
    06:00 +6°C° 0 mm 2 mps 765 mmHg 67%
    07:00 +5°C° 0 mm 3 mps 764 mmHg 65%
    08:00 +8°C° 0 mm 3 mps 764 mmHg 58%
    09:00 +10°C° 0 mm 4 mps 764 mmHg 52%
    10:00 +12°C° 0 mm 4 mps 764 mmHg 45%
    11:00 +13°C° 0 mm 4 mps 763 mmHg 43%
    12:00 +14°C° 0 mm 5 mps 763 mmHg 41%
    13:00 +15°C° 0 mm 5 mps 762 mmHg 38%
    14:00 +15°C° 0 mm 5 mps 761 mmHg 39%
    15:00 +15°C° 0 mm 4 mps 761 mmHg 40%
    16:00 +15°C° 0 mm 4 mps 760 mmHg 41%
    17:00 +14°C° 0 mm 4 mps 760 mmHg 44%
    18:00 +13°C° 0 mm 4 mps 760 mmHg 47%
    19:00 +12°C° 0 mm 4 mps 760 mmHg 50%
    20:00 +12°C° 0 mm 4 mps 759 mmHg 51%
    21:00 +12°C° 0 mm 4 mps 759 mmHg 51%
    22:00 +12°C° 0 mm 4 mps 759 mmHg 51%
    23:00 +12°C° 0 mm 5 mps 759 mmHg 52%

    27 September, Thursday

    Time Temperature Precipitation Wind Pressure Humidity
    00:00 +12°C° 0 mm 5 mps 759 mmHg 53%
    01:00 +12°C° 0 mm 5 mps 759 mmHg 55%
    02:00 +12°C° 0 mm 5 mps 758 mmHg 56%
    03:00 +10°C° 0 mm 5 mps 758 mmHg 57%
    04:00 +10°C° 0 mm 5 mps 758 mmHg 59%
    05:00 +10°C° 0 mm 5 mps 758 mmHg 59%
    06:00 +10°C° 0 mm 5 mps 758 mmHg 60%
    07:00 +11°C° 0 mm 4 mps 758 mmHg 61%
    08:00 +13°C° 0 mm 5 mps 758 mmHg 59%
    09:00 +15°C° 0 mm 5 mps 758 mmHg 57%
    10:00 +16°C° 0 mm 5 mps 758 mmHg 55%
    11:00 +19°C° 0 mm 5 mps 757 mmHg 54%
    12:00 +20°C° 0 mm 5 mps 757 mmHg 54%
    13:00 +21°C° 0 mm 5 mps 757 mmHg 53%
    14:00 +21°C° 0 mm 5 mps 756 mmHg 54%
    15:00 +21°C° 0 mm 4 mps 756 mmHg 55%
    16:00 +21°C° 0 mm 4 mps 755 mmHg 56%
    17:00 +20°C° 0 mm 4 mps 755 mmHg 61%
    18:00 +18°C° 0 mm 3 mps 754 mmHg 66%
    19:00 +17°C° 0 mm 3 mps 754 mmHg 71%
    20:00 +17°C° 0 mm 3 mps 754 mmHg 69%
    21:00 +17°C° 0 mm 3 mps 754 mmHg 68%
    22:00 +16°C° 0 mm 3 mps 754 mmHg 66%
    23:00 +15°C° 0 mm 4 mps 753 mmHg 65%

    28 September, Friday

    Time Temperature Precipitation Wind Pressure Humidity
    00:00 +15°C° 0 mm 4 mps 753 mmHg 64%
    01:00 +15°C° 0 mm 4 mps 753 mmHg 63%
    02:00 +14°C° 0 mm 4 mps 753 mmHg 66%
    03:00 +14°C° 0 mm 4 mps 753 mmHg 68%
    04:00 +13°C° 0 mm 3 mps 753 mmHg 70%
    05:00 +13°C° 0.2 mm 3 mps 753 mmHg 74%
    06:00 +13°C° 0.2 mm 4 mps 754 mmHg 77%
    07:00 +12°C° 0.2 mm 4 mps 754 mmHg 80%
    08:00 +13°C° 0.1 mm 3 mps 754 mmHg 76%
    09:00 +13°C° 0.1 mm 3 mps 755 mmHg 73%
    10:00 +13°C° 0.1 mm 3 mps 755 mmHg 69%
    11:00 +15°C° 0 mm 2 mps 755 mmHg 63%
    12:00 +16°C° 0 mm 2 mps 756 mmHg 57%
    13:00 +16°C° 0 mm 2 mps 756 mmHg 51%
    14:00 +16°C° 0 mm 2 mps 756 mmHg 52%
    15:00 +16°C° 0 mm 2 mps 756 mmHg 52%
    16:00 +16°C° 0 mm 2 mps 756 mmHg 52%
    17:00 +15°C° 0 mm 2 mps 756 mmHg 56%
    18:00 +14°C° 0 mm 2 mps 756 mmHg 59%
    19:00 +13°C° 0 mm 2 mps 757 mmHg 63%
    20:00 +12°C° 0 mm 2 mps 757 mmHg 65%
    21:00 +12°C° 0 mm 2 mps 757 mmHg 67%
    22:00 +10°C° 0 mm 2 mps 758 mmHg 69%
    23:00 +10°C° 0 mm 2 mps 758 mmHg 71%

    29 September, Saturday

    Time Temperature Precipitation Wind Pressure Humidity
    00:00 +9°C° 0 mm 2 mps 758 mmHg 73%
    01:00 +9°C° 0 mm 2 mps 758 mmHg 76%
    02:00 +8°C° 0 mm 2 mps 758 mmHg 77%
    03:00 +8°C° 0 mm 2 mps 759 mmHg 78%
    04:00 +7°C° 0 mm 2 mps 759 mmHg 80%
    05:00 +7°C° 0 mm 2 mps 759 mmHg 79%
    06:00 +7°C° 0 mm 2 mps 759 mmHg 79%
    07:00 +7°C° 0 mm 2 mps 760 mmHg 78%
    08:00 +9°C° 0 mm 2 mps 760 mmHg 70%
    09:00 +12°C° 0 mm 2 mps 760 mmHg 62%
    10:00 +14°C° 0 mm 2 mps 760 mmHg 54%
    11:00 +15°C° 0 mm 2 mps 760 mmHg 50%
    12:00 +16°C° 0 mm 2 mps 760 mmHg 46%
    13:00 +17°C° 0 mm 2 mps 760 mmHg 42%
    14:00 +17°C° 0 mm 2 mps 759 mmHg 43%
    15:00 +17°C° 0 mm 2 mps 759 mmHg 43%
    16:00 +17°C° 0 mm 2 mps 759 mmHg 43%
    17:00 +15°C° 0 mm 2 mps 759 mmHg 50%
    18:00 +13°C° 0 mm 2 mps 759 mmHg 56%
    19:00 +12°C° 0 mm 2 mps 759 mmHg 62%
    20:00 +10°C° 0 mm 2 mps 759 mmHg 63%
    21:00 +10°C° 0 mm 2 mps 758 mmHg 65%
    22:00 +9°C° 0 mm 2 mps 758 mmHg 66%
    23:00 +9°C° 0 mm 2 mps 758 mmHg 65%
    Show more

    3.3.7123123